| 2019 |
Orbital Elements
Epoch 2025 May 5.0 TT = JDT 2460800.5
T 2019 May 2.62513 TT Pike
q 5.7941738 (2000.0) P Q
n 0.06612336 Peri. 52.12344 +0.98912603 -0.08496890
a 6.0566540 Node 312.40409 +0.01488453 +0.86986342
e 0.0433375 Incl. 9.35600 +0.14631522 +0.48591966
P 14.9
Return in the future: 2035 - From 19231 observations 2019 Jan. 1-2025 Apr. 23,
mean residual 0".6. Nongravitational parameters A1 = -1.53, A2 = +2.2172 |
|
|